Weather History for KBKW - March, 2013

Change the Weather History Date:

Thursday, March 7, 2013

  Actual Average Record
Temperature  
Mean Temperature 29 °F 39 °F  
Max Temperature 30 °F 49 °F 74 °F (2009)
Min Temperature 27 °F 30 °F -1 °F (1960)
Degree Days  
Heating Degree Days 36 26  
Month to date heating degree days 256 186  
Since 1 July heating degree days 4070 4187  
Cooling Degree Days 0 0  
Month to date cooling degree days 0 0  
Year to date cooling degree days 0 0  
Moisture  
Dew Point 25 °F    
Average Humidity 85    
Maximum Humidity 92    
Minimum Humidity 78    
Precipitation  
Precipitation T in 0.11 in 2.00 in (1927)
Month to date precipitation 0.53 0.77  
Year to date precipitation 6.72 6.34  
Snow  
Snow 0.00 in - - ()
Month to date snowfall 6.3  
Since 1 September snowfall 62.2  
Snow Depth 0.00 in    
Sea Level Pressure  
Sea Level Pressure 30.25 in    
Wind  
Wind Speed 9 mph (WNW)    
Max Wind Speed 16 mph    
Max Gust Speed 23 mph    
Visibility 6 miles    
Events Fog , Rain    
T = Trace of Precipitation, MM = Missing Value Source: NWS Daily Summary

Daily Weather History Graph

Daily Weather History Graph

Search for Another Location

Airport or City:

Trip Planner

Search our weather history database for the weather conditions in past years. The results will help you decide how hot, cold, wet, or windy it might be!

Date:

Astronomy

Mar. 07, 2013 Rise Set
Actual Time 6:47 AM EST 6:24 PM EST
Civil Twilight 6:20 AM EST 6:50 PM EST
Nautical Twilight 5:50 AM EST 7:20 PM EST
Astronomical Twilight 5:20 AM EST 7:51 PM EST
Moon 3:41 AM EST (3/7) 2:14 PM EST (3/7)
Length of Visible Light 12h 29m
Length of Day
11h 37m
Waning Crescent, 20% of the Moon is Illuminated
Mar 7
Waning Crescent
Mar 11
New
Mar 19
First Quarter
Mar 27
Full
Apr 3
Last Quarter

Hourly Weather History & Observations

Time (EST) Temp. Windchill Dew Point Humidity Pressure Visibility Wind Dir Wind Speed Gust Speed Precip Events Conditions
12:51 AM 28.0 °F 18.6 °F 26.1 °F 92% 30.19 in 9.0 mi WNW 10.4 mph - N/A   Overcast
1:49 AM 28.4 °F 19.7 °F 24.8 °F 86% 30.09 in 10.0 mi WNW 9.2 mph - N/A   Overcast
1:51 AM 28.0 °F 18.6 °F 25.0 °F 88% 30.20 in 10.0 mi WNW 10.4 mph - N/A   Overcast
2:51 AM 28.0 °F 18.1 °F 25.0 °F 88% 30.19 in 9.0 mi NW 11.5 mph 17.3 mph N/A   Overcast
3:51 AM 27.0 °F 17.3 °F 25.0 °F 92% 30.20 in 5.0 mi NW 10.4 mph - N/A   Overcast
4:51 AM 27.0 °F 17.3 °F 25.0 °F 92% 30.22 in 5.0 mi WNW 10.4 mph - N/A   Overcast
5:38 AM 26.6 °F 16.8 °F 24.8 °F 93% 30.13 in 2.5 mi WNW 10.4 mph - N/A   Overcast
5:51 AM 27.0 °F 16.7 °F 25.0 °F 92% 30.24 in 3.0 mi WNW 11.5 mph - N/A   Overcast
6:51 AM 27.0 °F 17.3 °F 25.0 °F 92% 30.26 in 3.0 mi WNW 10.4 mph - N/A   Overcast
7:11 AM 26.6 °F 17.5 °F 24.8 °F 93% 30.16 in 2.0 mi WNW 9.2 mph - N/A   Overcast
7:19 AM 26.6 °F 16.8 °F 24.8 °F 93% 30.17 in 1.5 mi WNW 10.4 mph - N/A   Overcast
7:48 AM 26.6 °F 16.2 °F 24.8 °F 93% 30.18 in 2.0 mi WNW 11.5 mph - N/A   Overcast
7:51 AM 27.0 °F 17.3 °F 25.0 °F 92% 30.28 in 2.5 mi WNW 10.4 mph - N/A   Overcast
8:22 AM 26.6 °F 15.7 °F 24.8 °F 93% 30.19 in 1.5 mi NW 12.7 mph - N/A   Overcast
8:51 AM 27.0 °F 15.6 °F 25.0 °F 92% 30.30 in 1.8 mi NW 13.8 mph - N/A   Overcast
9:20 AM 26.6 °F 15.2 °F 24.8 °F 93% 30.20 in 0.5 mi NW 13.8 mph 23.0 mph 0.00 in Fog Light Freezing Fog
9:29 AM 26.6 °F 16.2 °F 24.8 °F 93% 30.20 in 0.5 mi NW 11.5 mph - 0.00 in Fog , Rain Light Freezing Rain
9:51 AM 27.0 °F 18.0 °F 25.0 °F 92% 30.31 in 0.8 mi WNW 9.2 mph - 0.00 in   Overcast
10:02 AM 26.6 °F 17.5 °F 24.8 °F 93% 30.21 in 1.0 mi NW 9.2 mph - 0.00 in   Overcast
10:51 AM 27.0 °F 17.3 °F 25.0 °F 92% 30.31 in 1.2 mi WNW 10.4 mph - 0.00 in   Overcast
11:51 AM 28.0 °F 19.3 °F 26.1 °F 92% 30.32 in 2.0 mi NW 9.2 mph - N/A   Overcast
12:04 PM 28.4 °F 18.5 °F 26.6 °F 93% 30.22 in 3.0 mi NW 11.5 mph - N/A   Overcast
12:51 PM 28.0 °F 21.7 °F 26.1 °F 92% 30.32 in 5.0 mi WNW 5.8 mph - N/A   Overcast
1:18 PM 28.4 °F 22.2 °F 26.6 °F 93% 30.21 in 5.0 mi NW 5.8 mph - N/A   Overcast
1:51 PM 28.9 °F 20.4 °F 26.1 °F 89% 30.29 in 7.0 mi NW 9.2 mph - N/A   Overcast
2:48 PM 30.2 °F 21.9 °F 24.8 °F 80% 30.19 in 10.0 mi WNW 9.2 mph - N/A   Overcast
2:51 PM 30.0 °F 21.7 °F 25.0 °F 82% 30.29 in 10.0 mi WNW 9.2 mph - N/A   Overcast
3:49 PM 30.2 °F 20.8 °F 24.8 °F 80% 30.21 in 10.0 mi NW 11.5 mph - N/A   Overcast
3:51 PM 30.0 °F 21.7 °F 25.0 °F 82% 30.30 in 10.0 mi NW 9.2 mph - N/A   Overcast
4:08 PM 30.2 °F 21.9 °F 24.8 °F 80% 30.21 in 7.0 mi NW 9.2 mph - N/A   Overcast
4:51 PM 30.0 °F 20.5 °F 25.0 °F 82% 30.30 in 9.0 mi NW 11.5 mph - N/A   Overcast
5:51 PM 30.0 °F 21.7 °F 25.0 °F 82% 30.32 in 9.0 mi WNW 9.2 mph - N/A   Overcast
6:51 PM 28.9 °F 22.8 °F 25.0 °F 85% 30.33 in 8.0 mi WNW 5.8 mph - N/A   Overcast
7:51 PM 28.9 °F 23.9 °F 26.1 °F 89% 30.33 in 8.0 mi WNW 4.6 mph - N/A   Overcast
8:51 PM 28.9 °F 21.9 °F 26.1 °F 89% 30.34 in 9.0 mi WNW 6.9 mph - N/A   Overcast
9:11 PM 28.4 °F 21.2 °F 26.6 °F 93% 30.24 in 9.0 mi WNW 6.9 mph - N/A   Overcast
9:48 PM 28.4 °F 22.2 °F 26.6 °F 93% 30.23 in 9.0 mi WNW 5.8 mph - N/A   Overcast
9:51 PM 28.9 °F 23.9 °F 26.1 °F 89% 30.34 in 9.0 mi West 4.6 mph - N/A   Overcast
10:35 PM 28.4 °F 19.7 °F 24.8 °F 86% 30.24 in 10.0 mi WNW 9.2 mph - N/A   Overcast
10:39 PM 28.4 °F 21.2 °F 24.8 °F 86% 30.24 in 10.0 mi NW 6.9 mph - N/A   Overcast
10:51 PM 28.9 °F 21.1 °F 25.0 °F 85% 30.34 in 10.0 mi NW 8.1 mph - N/A   Overcast
11:24 PM 28.4 °F 21.2 °F 24.8 °F 86% 30.24 in 10.0 mi NW 6.9 mph - N/A   Overcast
11:51 PM 28.9 °F 21.1 °F 25.0 °F 85% 30.33 in 10.0 mi NW 8.1 mph - N/A   Overcast